DW5164 Weather Reports


time (UTC)temp
C
wind
direction
speed
KPH
gust
KPH
rain 1hr
cm
rain 24hr
cm
rain mn
cm
humidity
%
barometer
mb
20260509175550 22 102 1.6 3.2 0.00 0.00 0.00 59 1012.9
20260509174550 23 103 1.6 3.2 0.00 0.00 0.00 57 1012.9
20260509174052 23 133 1.6 3.2 0.00 0.00 0.00 56 1012.9
20260509173549 23 133 1.6 3.2 0.00 0.00 0.00 55 1012.9
20260509173050 23 133 1.6 3.2 0.00 0.00 0.00 56 1013.0
20260509172550 23 133 0.0 1.6 0.00 0.00 0.00 57 1013.0
20260509172052 24 133 1.6 3.2 0.00 0.00 0.00 54 1013.0
20260509171549 24 139 3.2 4.8 0.00 0.00 0.00 53 1013.0
20260509171050 24 105 1.6 4.8 0.00 0.00 0.00 51 1013.1
20260509170549 24 116 4.8 8.0 0.00 0.00 0.00 52 1013.1
20260509170052 25 127 1.6 4.8 0.00 0.00 0.00 51 1013.2
20260509165549 25 179 1.6 4.8 0.00 0.00 0.00 50 1013.2
20260509165050 25 199 4.8 12.9 0.00 0.00 0.00 51 1013.2
20260509164549 25 78 1.6 3.2 0.00 0.00 0.00 51 1013.3
20260509163049 25 97 3.2 8.0 0.00 0.00 0.00 50 1013.4
20260509162549 25 215 6.4 8.0 0.00 0.00 0.00 49 1013.4
20260509162050 25 183 3.2 9.7 0.00 0.00 0.00 49 1013.4
20260509161549 25 171 3.2 9.7 0.00 0.00 0.00 51 1013.4
20260509161049 25 118 3.2 8.0 0.00 0.00 0.00 50 1013.4
20260509160549 25 159 3.2 11.3 0.00 0.00 0.00 51 1013.5
20260509155549 25 138 6.4 8.0 0.00 0.00 0.00 50 1013.5
20260509155049 25 173 3.2 9.7 0.00 0.00 0.00 50 1013.4
20260509153549 25 152 1.6 8.0 0.00 0.00 0.00 49 1013.4
20260509153049 25 115 3.2 8.0 0.00 0.00 0.00 50 1013.4
20260509152549 26 122 8.0 8.0 0.00 0.00 0.00 50 1013.4
20260509152049 26 122 3.2 8.0 0.00 0.00 0.00 50 1013.5
20260509151549 25 261 8.0 12.9 0.00 0.00 0.00 49 1013.5
20260509151049 26 214 3.2 11.3 0.00 0.00 0.00 50 1013.4
20260509145049 26 206 3.2 4.8 0.00 0.00 0.00 45 1013.4
20260509144551 25 175 1.6 8.0 0.00 0.00 0.00 45 1013.5
20260509144049 26 216 4.8 4.8 0.00 0.00 0.00 47 1013.5
20260509143551 26 220 8.0 11.3 0.00 0.00 0.00 47 1013.5
20260509143049 26 233 6.4 11.3 0.00 0.00 0.00 47 1013.6
20260509142551 25 112 4.8 8.0 0.00 0.00 0.00 48 1013.7
20260509142049 26 119 3.2 9.7 0.00 0.00 0.00 50 1013.7
20260509141548 26 185 1.6 4.8 0.00 0.00 0.00 50 1013.7
20260509135050 25 155 1.6 8.0 0.00 0.00 0.00 50 1014.1
20260509134550 26 117 1.6 8.0 0.00 0.00 0.00 51 1014.3
20260509134049 25 196 3.2 4.8 0.00 0.00 0.00 49 1014.3
20260509133549 25 281 8.0 11.3 0.00 0.00 0.00 52 1014.4
20260509133048 25 205 9.7 16.1 0.00 0.00 0.00 51 1014.5
20260509131549 26 228 4.8 11.3 0.00 0.00 0.00 48 1014.5
20260509131049 25 242 8.0 9.7 0.00 0.00 0.00 51 1014.6
20260509130550 25 225 1.6 11.3 0.00 0.00 0.00 52 1014.6
20260509130049 25 212 4.8 9.7 0.00 0.00 0.00 51 1014.7
20260509125049 25 124 4.8 16.1 0.00 0.00 0.00 53 1014.8
20260509124549 25 229 3.2 11.3 0.00 0.00 0.00 55 1014.9
20260509124049 25 268 4.8 8.0 0.00 0.00 0.00 55 1014.9
20260509123052 24 197 3.2 8.0 0.00 0.00 0.00 57 1015.0
20260509122549 25 217 3.2 8.0 0.00 0.00 0.00 54 1015.0
20260509122049 25 194 4.8 8.0 0.00 0.00 0.00 54 1015.0
20260509121548 25 192 8.0 11.3 0.00 0.00 0.00 56 1014.9
20260509121049 25 211 4.8 11.3 0.00 0.00 0.00 56 1015.0
20260509120549 25 207 3.2 9.7 0.00 0.00 0.00 55 1015.0
20260509120048 25 205 4.8 12.9 0.00 0.00 0.00 56 1014.9
20260509115049 25 192 4.8 8.0 0.00 0.00 0.00 56 1015.0
20260509114549 25 153 8.0 14.5 0.00 0.00 0.00 55 1015.0
20260509114049 25 200 6.4 9.7 0.00 0.00 0.00 56 1015.1
20260509113050 24 191 4.8 8.0 0.00 0.00 0.00 58 1015.2
20260509112100 24 250 4.8 8.0 0.00 0.00 0.00 56 1015.4
20260509111548 25 287 3.2 4.8 0.00 0.00 0.00 55 1015.5
20260509111048 24 0 4.8 9.7 0.00 0.00 0.00 58 1015.5
20260509110604 23 257 6.4 9.7 0.00 0.00 0.00 57 1015.5
20260509110048 24 239 4.8 9.7 0.00 0.00 0.00 58 1015.5
20260509105549 23 195 4.8 8.0 0.00 0.00 0.00 58 1015.6
20260509105048 23 330 6.4 9.7 0.00 0.00 0.00 59 1015.7
20260509104548 23 299 4.8 8.0 0.00 0.00 0.00 60 1015.8
20260509104055 23 308 3.2 9.7 0.00 0.00 0.00 58 1015.8
20260509103548 23 300 8.0 11.3 0.00 0.00 0.00 59 1015.9
20260509103048 23 239 3.2 11.3 0.00 0.00 0.00 63 1016.0
20260509102549 23 265 6.4 12.9 0.00 0.00 0.00 60 1016.1
20260509102049 23 146 6.4 11.3 0.00 0.00 0.00 61 1016.2
20260509101049 23 232 11.3 11.3 0.00 0.00 0.00 61 1016.2
20260509100548 23 258 6.4 8.0 0.00 0.00 0.00 62 1016.3
20260509095548 22 225 3.2 4.8 0.00 0.00 0.00 63 1016.3
20260509095048 23 258 3.2 8.0 0.00 0.00 0.00 63 1016.3
20260509094548 22 253 1.6 4.8 0.00 0.00 0.00 66 1016.3
20260509094048 22 232 3.2 4.8 0.00 0.00 0.00 67 1016.4
20260509093549 23 259 3.2 8.0 0.00 0.00 0.00 65 1016.4
20260509092548 22 67 4.8 8.0 0.00 0.00 0.00 67 1016.4
20260509092048 22 331 1.6 3.2 0.00 0.00 0.00 66 1016.5
20260509090548 21 321 1.6 4.8 0.00 0.00 0.00 70 1016.5
20260509090048 21 101 1.6 4.8 0.00 0.00 0.00 69 1016.5
20260509085047 21 220 3.2 4.8 0.00 0.00 0.00 70 1016.6
20260509084548 21 220 3.2 8.0 0.00 0.00 0.00 69 1016.6
20260509084048 21 246 1.6 4.8 0.00 0.00 0.00 68 1016.7
20260509083548 21 73 1.6 4.8 0.00 0.00 0.00 73 1016.6
20260509083048 21 62 1.6 4.8 0.00 0.00 0.00 73 1016.7
20260509082547 20 330 1.6 4.8 0.00 0.00 0.00 72 1016.7
20260509080547 20 264 1.6 8.0 0.00 0.00 0.00 75 1016.8
20260509074548 19 77 0.0 4.8 0.00 0.00 0.00 76 1016.8
20260509074047 18 63 1.6 4.8 0.00 0.00 0.00 77 1016.8
20260509073047 18 328 1.6 3.2 0.00 0.00 0.00 82 1016.9
20260509072548 18 198 1.6 3.2 0.00 0.00 0.00 81 1016.8
20260509072047 18 14 1.6 3.2 0.00 0.00 0.00 82 1016.9
20260509071548 18 332 3.2 3.2 0.00 0.00 0.00 83 1016.9
20260509071049 18 355 0.0 3.2 0.00 0.00 0.00 83 1016.9
20260509070548 17 355 1.6 3.2 0.00 0.00 0.00 84 1016.9
20260509065547 17 76 3.2 4.8 0.00 0.00 0.00 84 1016.8
20260509065047 17 93 3.2 4.8 0.00 0.00 0.00 85 1016.8
20260509063048 16 332 0.0 1.6 0.00 0.00 0.00 88 1016.7
20260509062048 15 314 0.0 1.6 0.00 0.00 0.00 91 1016.7
20260509061548 15 307 0.0 1.6 0.00 0.00 0.00 92 1016.7
20260509060549 15 242 0.0 0.0 0.00 0.00 0.00 94 1016.7
20260509060047 14 264 0.0 3.2 0.00 0.00 0.00 94 1016.6
20260509055604 14 270 3.2 4.8 0.00 0.00 0.00 95 1016.7
20260509054547 13 249 0.0 1.6 0.00 0.00 0.00 95 1016.6
20260509054048 13 246 3.2 4.8 0.00 0.00 0.00 96 1016.6
20260509053047 13 311 1.6 3.2 0.00 0.00 0.00 96 1016.6
20260509052548 13 261 1.6 1.6 0.00 0.00 0.00 96 1016.5
20260509052048 12 262 0.0 1.6 0.00 0.00 0.00 97 1016.4
20260509051049 12 232 0.0 1.6 0.00 0.00 0.00 97 1016.3
20260509045547 12 232 0.0 1.6 0.00 0.00 0.00 97 1016.2
20260509045050 11 232 1.6 4.8 0.00 0.00 0.00 96 1016.2
20260509044047 12 285 1.6 3.2 0.00 0.00 0.00 97 1016.1
20260509043547 12 285 0.0 0.0 0.00 0.00 0.00 97 1016.0
20260509042547 12 313 0.0 1.6 0.00 0.00 0.00 96 1016.1
20260509042047 12 313 0.0 1.6 0.00 0.00 0.00 97 1016.0
20260509041549 12 227 0.0 3.2 0.00 0.00 0.00 97 1016.1
20260509041046 11 214 1.6 4.8 0.00 0.00 0.00 96 1016.1
20260509040547 11 213 3.2 4.8 0.00 0.00 0.00 96 1016.1
20260509040047 11 219 1.6 3.2 0.00 0.00 0.00 96 1016.1
20260509035048 11 217 3.2 4.8 0.00 0.00 0.00 96 1016.0
20260509034547 11 77 1.6 3.2 0.00 0.00 0.00 96 1016.0
20260509034047 12 42 1.6 3.2 0.00 0.00 0.00 96 1015.9
20260509033547 12 49 1.6 3.2 0.00 0.00 0.00 96 1015.9
20260509033047 12 49 0.0 0.0 0.00 0.00 0.00 96 1015.9
20260509032048 12 59 1.6 1.6 0.00 0.00 0.00 96 1015.7
20260509031547 12 59 1.6 4.8 0.00 0.00 0.00 96 1015.7
20260509031046 12 72 1.6 4.8 0.00 0.00 0.00 96 1015.7
20260509030547 12 80 3.2 4.8 0.00 0.00 0.00 96 1015.7
20260509030046 12 80 3.2 3.2 0.00 0.00 0.00 96 1015.7
20260509025547 12 80 0.0 3.2 0.00 0.00 0.00 96 1015.8
20260509025047 12 80 0.0 3.2 0.00 0.00 0.00 96 1015.8
20260509024549 12 80 1.6 3.2 0.00 0.00 0.00 96 1015.9
20260509024047 12 80 0.0 1.6 0.00 0.00 0.00 96 1015.9
20260509023546 12 80 3.2 4.8 0.00 0.00 0.00 96 1015.9
20260509023048 12 80 0.0 0.0 0.00 0.00 0.00 96 1015.9
20260509022547 12 80 0.0 0.0 0.00 0.00 0.00 96 1015.9
20260509022102 12 80 0.0 0.0 0.00 0.00 0.00 96 1016.0
20260509021547 12 80 0.0 0.0 0.00 0.00 0.00 96 1016.0
20260509021047 12 80 0.0 0.0 0.00 0.00 0.00 96 1016.0
20260509020547 12 80 0.0 0.0 0.00 0.00 0.00 96 1016.0
20260509020047 12 80 0.0 0.0 0.00 0.00 0.00 95 1016.0
20260509015547 12 80 0.0 0.0 0.00 0.00 0.00 95 1016.0
20260509014549 12 80 0.0 0.0 0.00 0.00 0.00 95 1015.9
20260509014046 12 80 0.0 0.0 0.00 0.00 0.00 95 1015.9
20260509013046 13 80 0.0 0.0 0.00 0.00 0.00 95 1015.9
20260509012549 13 80 0.0 0.0 0.00 0.00 0.00 95 1015.9
20260509011546 13 80 0.0 0.0 0.00 0.00 0.00 95 1015.8
20260509011047 13 80 0.0 0.0 0.00 0.00 0.00 95 1015.8
20260509010547 13 80 0.0 1.6 0.00 0.00 0.00 95 1015.8
20260509010046 13 80 0.0 1.6 0.00 0.00 0.00 95 1015.8
20260509005547 13 80 1.6 3.2 0.00 0.00 0.00 95 1015.9
20260509005047 13 80 0.0 1.6 0.00 0.00 0.00 94 1015.8
20260509004047 13 80 0.0 0.0 0.00 0.00 0.00 94 1015.8
20260509003547 13 80 1.6 3.2 0.00 0.00 0.00 94 1015.8
20260509003046 13 80 0.0 0.0 0.00 0.00 0.00 94 1015.8
20260509002548 13 80 0.0 0.0 0.00 0.00 0.00 94 1015.8
20260509002049 13 80 0.0 1.6 0.00 0.00 0.00 94 1015.8
20260509001546 13 80 0.0 1.6 0.00 0.00 0.00 94 1015.8
20260509001046 13 80 0.0 3.2 0.00 0.00 0.00 93 1015.7
20260509000047 13 141 1.6 4.8 0.00 0.00 0.00 92 1015.6
20260508235546 13 141 3.2 3.2 0.00 0.00 0.00 92 1015.5
20260508234546 14 184 0.0 0.0 0.00 0.00 0.00 92 1015.5
20260508234047 14 184 0.0 0.0 0.00 0.00 0.00 92 1015.4
20260508233549 14 184 0.0 0.0 0.00 0.00 0.00 91 1015.4
20260508233046 14 184 0.0 0.0 0.00 0.00 0.00 92 1015.5
20260508231546 14 184 0.0 0.0 0.00 0.00 0.00 91 1015.5
20260508231049 14 184 0.0 0.0 0.00 0.00 0.00 91 1015.5
20260508230549 14 184 0.0 0.0 0.00 0.00 0.00 91 1015.5
20260508230046 14 184 0.0 0.0 0.00 0.00 0.00 91 1015.5
20260508225046 14 184 0.0 0.0 0.00 0.00 0.00 91 1015.5
20260508223602 15 184 0.0 0.0 0.00 0.00 0.00 91 1015.5
20260508222546 15 184 0.0 0.0 0.00 0.00 0.00 90 1015.5
20260508222046 15 184 0.0 0.0 0.00 0.00 0.00 90 1015.5
20260508221557 15 184 0.0 0.0 0.00 0.00 0.00 89 1015.6
20260508220546 15 184 0.0 0.0 0.00 0.00 0.00 88 1015.6
20260508215546 15 184 0.0 0.0 0.00 0.00 0.00 88 1015.6
20260508214045 15 184 0.0 0.0 0.00 0.00 0.00 87 1015.5
20260508213553 16 184 0.0 0.0 0.00 0.00 0.00 87 1015.4
20260508213046 16 184 0.0 0.0 0.00 0.00 0.00 86 1015.5
20260508212547 16 184 0.0 0.0 0.00 0.00 0.00 86 1015.5
20260508211545 16 184 0.0 0.0 0.00 0.00 0.00 85 1015.5
20260508211046 16 184 0.0 0.0 0.00 0.00 0.00 85 1015.5
20260508210047 16 184 0.0 0.0 0.00 0.00 0.00 84 1015.5
20260508205546 16 184 0.0 0.0 0.00 0.00 0.00 84 1015.5
20260508205045 16 184 0.0 0.0 0.00 0.00 0.00 83 1015.5
20260508204546 17 184 0.0 0.0 0.00 0.00 0.00 83 1015.4
20260508204051 17 184 0.0 3.2 0.00 0.00 0.00 82 1015.4
20260508203546 17 181 1.6 3.2 0.00 0.00 0.00 82 1015.4
20260508203046 17 182 1.6 3.2 0.00 0.00 0.00 81 1015.4
20260508202045 18 182 3.2 4.8 0.00 0.00 0.00 79 1015.3
20260508201545 18 180 4.8 4.8 0.00 0.00 0.00 79 1015.3
20260508201048 18 177 3.2 4.8 0.00 0.00 0.00 79 1015.3
20260508200545 17 186 4.8 8.0 0.00 0.00 0.00 80 1015.3
20260508195600 17 173 3.2 4.8 0.00 0.00 0.00 83 1015.2
20260508195045 17 118 1.6 3.2 0.00 0.00 0.00 82 1015.1
20260508194545 17 118 1.6 3.2 0.00 0.00 0.00 82 1015.1
20260508194045 17 118 1.6 3.2 0.00 0.00 0.00 82 1015.0
20260508193545 17 118 1.6 3.2 0.00 0.00 0.00 81 1015.0
20260508193051 17 118 1.6 3.2 0.00 0.00 0.00 81 1014.9
20260508192545 17 118 1.6 3.2 0.00 0.00 0.00 81 1014.8
20260508192045 17 118 3.2 4.8 0.00 0.00 0.00 80 1014.8
20260508191545 18 118 3.2 4.8 0.00 0.00 0.00 80 1014.7
20260508191051 18 121 3.2 4.8 0.00 0.00 0.00 80 1014.5
20260508190546 18 125 3.2 4.8 0.00 0.00 0.00 80 1014.5
20260508190046 18 125 3.2 4.8 0.00 0.00 0.00 79 1014.4
20260508185545 18 120 3.2 4.8 0.00 0.00 0.00 80 1014.4
20260508185053 18 133 1.6 3.2 0.00 0.00 0.00 79 1014.3
20260508184546 18 121 1.6 1.6 0.00 0.00 0.00 79 1014.3
20260508184045 18 121 1.6 4.8 0.00 0.00 0.00 77 1014.2
20260508183545 18 121 4.8 8.0 0.00 0.00 0.00 76 1014.2
20260508183046 19 76 0.0 0.0 0.00 0.00 0.00 76 1014.1
20260508182545 19 78 0.0 0.0 0.00 0.00 0.00 75 1014.0
20260508181545 20 85 0.0 0.0 0.00 0.00 0.00 75 1013.9
20260508181045 20 85 0.0 0.0 0.00 0.00 0.00 75 1013.9
20260508180546 20 85 0.0 0.0 0.00 0.00 0.00 74 1013.9